Location: ?????
(55.6500°N, 37.2500°E)
Time: 04:51:57
(UTC+00:00)

Landsat 4 - Pass Details

Date: 19 May 2025
Orbit: 355 x 362 km, 98.2° (Epoch: 19 June)

Event Time Altitude Azimuth Distance (km) Brightness Sun altitude
Exits shadow 22:40:05 22° 229° (SW) 887 4.4 -12.8°
Maximum altitude 22:41:04 26° 262° (W) 773 4.3 -12.8°
Drops below altitude 10° 22:43:39 10° 323° (NW) 1,397 6.4 -12.7°
Sets 22:45:49 0° 336° (NNW) 2,261 7.7 -12.6°
